UmKA 1 (RS40S)
1 57172U 23091G   26152.56508650  .00006961  00000-0  31982-3 0  9996
2 57172  97.5057 211.3238 0013304 167.4743 192.6826 15.20622171161638
CubeBel-2 (EU11S)
1 57175U 23091K   26152.54223995  .00013616  00000-0  48878-3 0  9990
2 57175  97.5058 215.6234 0010651 163.1316 197.0280 15.28749620161917
RS-38S
1 57189U 23091Z   26152.57534653  .00017888  00000-0  51988-3 0  9995
2 57189  97.5098 221.7532 0008791 124.1801 236.0277 15.35488628162291
SONATE-2
1 59112U 24043Q   26151.95414564  .00042877  00000-0  58322-3 0  9995
2 59112  97.5518 301.3715 0006170 252.6142 107.4438 15.57445778125368
GRBBeta
1 60237U 24128C   26152.55656414  .00005070  00000-0  34876-3 0  9990
2 60237  61.9910 271.1009 0042816 131.3784 229.1003 15.06512533103916
Curium One
1 60242U 24128H   26152.43468939  .00009589  00000-0  55205-3 0  9994
2 60242  61.9793 261.5579 0041982 127.8024 232.6885 15.12265396104070
ROBUSTA-3A
1 60243U 24128J   26152.52310920  .00009705  00000-0  57062-3 0  9994
2 60243  61.9875 263.6292 0043478 125.0564 235.4622 15.11441052104050
CatSat
1 60246U 24125J   26152.52970228  .00053166  00000-0  73322-3 0  9994
2 60246  97.2094   4.8478 0021544 236.0164 123.9045 15.56767771104955
HYPERVIEW-1G (RS66S)
1 61772U 24199AP  26152.54850685  .00116677  00000-0  89236-3 0  9994
2 61772  97.2902  31.5232 0002807 347.7015  12.4179 15.71796416132214
AO-123
1 61781U 24199AY  26152.59056701  .00008811  00000-0  25747-3 0  9993
2 61781  97.3017  21.4034 0014069  12.5763 347.5829 15.35432038131535
JINJUSat 1B
1 63210U 25052A   26152.15644737  .00016744  00000-0  52764-3 0  9998
2 63210  97.4025  48.8954 0004985 125.5060 234.6648 15.32961538 67643
NUSHSAT 1
1 63211U 25052B   26152.42076392  .00021318  00000-0  62294-3 0  9997
2 63211  97.4004  49.6728 0004867 125.4004 234.7695 15.35304926 67722
TEVEL2-4
1 63213U 25052D   26152.13868696  .00019298  00000-0  58810-3 0  9996
2 63213  97.3928  48.5097 0004003 135.4759 224.6806 15.34001572 67659
TEVEL2-5
1 63214U 25052E   26152.48361772  .00019889  00000-0  60885-3 0  9999
2 63214  97.3924  48.8074 0003857 134.8519 225.3038 15.33851987 67700
TEVEL2-6
1 63215U 25052F   26151.64745499  .00022895  00000-0  70186-3 0  9995
2 63215  97.3931  47.9549 0003882 135.3365 224.8191 15.33778928 67571
TEVEL2-1
1 63217U 25052H   26151.93191094  .00020868  00000-0  65021-3 0  9995
2 63217  97.3897  47.8829 0003704 144.7700 215.3788 15.33280482 67608
TEVEL2-3
1 63218U 25052J   26151.66608101  .00023021  00000-0  71595-3 0  9995
2 63218  97.3903  47.6376 0003537 145.3874 214.7599 15.33321295 67561
TEVEL2-2
1 63219U 25052K   26151.67126382  .00022835  00000-0  71115-3 0  9993
2 63219  97.3902  47.6247 0003508 146.4369 213.7096 15.33277480 67564
TEVEL2-9
1 63237U 25052AD  26151.95432026  .00018459  00000-0  61088-3 0  9994
2 63237  97.3954  47.3180 0006149 179.5124 180.6125 15.31360356 67540
TEVEL2-7
1 63238U 25052AE  26151.66540704  .00020472  00000-0  68321-3 0  9991
2 63238  97.3966  46.9520 0006111 181.5260 178.5964 15.31067500 67496
TEVEL2-8
1 63239U 25052AF  26151.93490837  .00018717  00000-0  62516-3 0  9992
2 63239  97.3966  47.1985 0006118 180.5958 179.5277 15.31060500 67531
SPIRONE
1 66657U 25274H   26151.77352439  .00002581  00000-0  25039-3 0  9993
2 66657  97.7488  81.3004 0013746  71.1468 289.1241 14.93473077 27774
K-HERO
1 66660U 25274L   26151.78272106  .00002253  00000-0  21680-3 0  9994
2 66660  97.7493  81.4588 0015528  74.8150 285.4786 14.93892549 27783
SNUGLITE-III DURI
1 66661U 25274M   26152.23982222  .00001809  00000-0  17493-3 0  9996
2 66661  97.7492  81.9295 0016249  74.4465 285.8547 14.93944384 27851
SAKHACUBE-CHOLBON
1 67290U 25313AU  26151.68786214  .00013468  00000-0  54840-3 0  9991
2 67290  97.3938 226.9319 0010367  60.4701 299.7569 15.24563850 23463
RS95S (QMR-KWT-2)
1 67291U 25313AV  26151.75615224  .00017855  00000-0  69893-3 0  9990
2 67291  97.3938 227.1428 0009804  60.0809 300.1402 15.25827268 23489
Ten-Koh2
1 68261U 25241B   26152.07912124  .00007745  00000-0  33165-3 0  9993
2 68261  51.6655  36.2788 0006617  95.4111 264.7622 15.23692419 12451
JACK-002
1 68417U 26067B   26152.42042163  .00007726  00000-0  37043-3 0  9997
2 68417  97.4565 111.2094 0002113  31.8006 328.3356 15.19180201  9554
DISCO 2
1 68431U 26067R   26151.84508636  .00010027  00000-0  48482-3 0  9997
2 68431  97.4593 110.6311 0004005  71.8634 288.3036 15.18800149  9468
HADES-SA (SpinnyONE)
1 68446U 26067AG  26152.34376096  .00017995  00000-0  87379-3 0  9991
2 68446  97.4408 110.8860 0009360 121.4377 238.7774 15.18480972  9528
PARUS-6U1
1 68456U 26067AS  26152.42811513  .00006509  00000-0  32935-3 0  9996
2 68456  97.4549 111.0372 0007464 112.2799 247.9226 15.17336373  9545
SAL-E
1 68458U 26067AU  26152.42573081  .00008424  00000-0  42300-3 0  9998
2 68458  97.4478 110.9814 0007665 119.3200 240.8801 15.17513709  9546
FSI-SAT 2
1 68792U 26088A   26152.34758109  .00005048  00000-0  34314-3 0  9994
2 68792  97.5058 302.0078 0015257 156.4360 203.7570 15.06694784  5901
OrigamiSat 2
1 68795U 26088D   26152.37544368  .00004461  00000-0  29060-3 0  9990
2 68795  97.5036 302.1293 0016558 134.8077 225.4501 15.08315504  5918
ARICA 2
1 68796U 26088E   26152.37276761  .00005669  00000-0  36846-3 0  9991
2 68796  97.5039 302.1218 0016829 130.3450 229.9251 15.08280598  5911
WASEDA-SAT-ZERO-II
1 68797U 26088F   26152.37045560  .00007830  00000-0  50514-3 0  9993
2 68797  97.5037 302.1246 0016669 130.5005 229.7679 15.08438851  5910
MANGARO-II-Piscus
1 68798U 26088G   26152.36274004  .00005321  00000-0  34217-3 0  9995
2 68798  97.5051 302.1393 0020224 133.1918 227.1005 15.08654197  5912
IO-86
1 40931U          25360.30710720  .00000000  00000-0  12800-3 0    00
2 40931   6.0006 332.5373 0012733 338.8432   8.1437 14.79075515    01
LILIUM-4                
1 71922C 26067AC  26089.50133053 -.00014632  00000+0 -74472-3 0    04
2 71922  97.4497  49.1617 0004341   5.9603 355.7042 15.16896692    16
